www.pogodaiklimat.ru

Погода и климат >> Архив погоды >> Канада >> Spence bay


ПОГОДА в Spence bay

  • Прогноз погоды в Spence bay
  • Монитор погоды в Spence bay
  • Климат города

АРХИВ ПОГОДЫ в Spence bay

Время (UTC), дата Ветер
(напр.,м/с)
 
Видим.   Явления Облачность Т
(С)
Тd
(С)
f
(%)
Тe
(С)
Тes
(С)
Комфортность P
(гПа)
Po
(гПа)
Тmin
(С)
Tmax
(С)
R
(мм)
R24
(мм)
S
(см)
06 12.08 СВ 3 24 км 9/6 1000 м
[Sc Ac trans Ci fib]
+9.8 +7.1 83 +8 +8 1012.4 1008.9 10
09 12.08 СВ 2 24 км 4/4 1000 м
[]
+8.9 +6.4 84 +7 +7 1012.7 1009.2
12 12.08 СВ 4 24 км 8/6 1000 м
[Sc Ac trans Ci fib]
+9.8 +6.7 81 +7 +7 1013.1 1009.6 +8.4
15 12.08 Ю 4 24 км 6/6 1000 м
[]
+14.9 +10.6 75 +14 +15 1012.6 1009.1
18 12.08 ЮВ 3 24 км 1/1 1000 м
[Sc Ac trans Ci sp]
+18.7 +12.5 67 +20 +25 1012.2 1008.7 +18.7
21 12.08 Ю 3 24 км 1/1 1000 м
[]
+21.1 +13.6 62 +24 +27 комфорт 1011.5 1008.0
00 13.08 ЮВ 6 24 км 4/4 1000 м
[Sc Ac trans Ci]
+20.9 +13.2 61 +23 +24 комфорт 1010.5 1007.0 +8.4 +21.8
03 13.08 ЮВ 7 24 км 6/6 1000 м
[]
+18.8 +12.3 66 +19 +19 1009.8 1006.3
06 13.08 ЮВ 7 24 км 4/1 1000 м
[Sc Ac trans Ci fib]
+14.9 +11.5 80 +13 +13 1009.3 1005.8 +8.4 +21.8 6
09 13.08 ЮВ 7 24 км 6/0
[]
+13.6 +10.8 83 +11 +11 1008.5 1005.0
12 13.08 ЮВ 7 24 км 6/0
[As trans Ci fib]
+13.2 +10.8 85 +11 +11 1007.7 1004.2 +13.0 +21.8
15 13.08 Ю 6 24 км 4/0
[]
+14.8 +11.6 81 +13 +15 1006.6 1003.1
18 13.08 Ю 6 19 км мгла 4/0
[As trans Ci sp]
+17.9 +12.9 73 +17 +19 1005.2 1001.7 +13.0 +17.9
21 13.08 Ю 8 16 км 6/0
[]
+17.2 +12.6 74 +16 +17 1003.7 1000.2
00 14.08 Ю 5 12 км мгла 9/0
[Ac trans Ci sp]
+14.6 +12.4 87 +13 +13 1002.6 999.1 +13.0 +19.4
03 14.08 Ю 5 8000 м 5/5 1500 м
[]
+13.2 +11.8 91 +11 +11 1002.1 998.6
06 14.08 6000 м н/о +11.0 +10.4 96 +8 +8 1001.2 997.7 +10.9 +19.4 8
09 14.08 Ю 3 200 м 3/3 1000 м
[]
+9.7 +9.3 97 +7 +7 1001.4 997.9
12 14.08 200 м н/о +9.0 +8.7 98 +8 +9 1002.7 999.2 +8.5 +19.4
15 14.08 СВ 5 16 км 9/9 100 м
[]
+11.2 +11.0 99 +8 +8 1004.5 1001.0
18 14.08 СВ 8 24 км {дождь, туман} 10/10 300 м
[Cu Sc]
+10.8 +7.0 77 +7 +7 1006.5 1003.0 +8.5 +11.5 0.0
21 14.08 СВ 10 24 км 9/9 300 м
[]
+9.5 -1.2 47 +5 +5 1008.7 1005.2
00 15.08 СВ 10 24 км мгла 9/9 1000 м
[Sc Ac trans Ci]
+7.5 -2.1 51 +3 +3 1010.9 1007.4 +7.5 +11.5
03 15.08 СВ 5 24 км 9/0
[]
+4.7 -1.5 64 0 0 1012.5 1009.0
06 15.08 С 5 24 км 8/0 2000 м
[As trans Cs]
+2.7 -1.3 75 -2 -2 1013.5 1010.0 +2.7 +11.5 231
09 15.08 СВ 6 24 км 8/0 2000 м
[]
+2.7 -1.4 74 -3 -3 1014.4 1010.9
12 15.08 С 4 24 км 9/0 2000 м
[As trans Cs]
+2.4 -0.8 79 -2 -2 1015.6 1012.1 +1.8 +11.5
15 15.08 СВ 7 24 км 9/0 2000 м
[]
+4.7 -0.4 69 -1 -0 1015.7 1012.2
18 15.08 СВ 4 24 км мгла {дождь} 9/0
[Ac trans Ci]
+5.9 -0.2 65 +2 +4 1016.3 1012.7 +1.8 +6.0 0.0
21 15.08 СВ 5 24 км 8/0
[]
+8.4 -0.4 54 +5 +7 1016.4 1012.9
00 16.08 СВ 4 24 км мгла 5/0
[As trans Ci]
+8.4 -0.7 53 +6 +6 1016.7 1013.2 +1.8 +8.7
03 16.08 СВ 3 24 км 6/0
[]
+5.6 -0.5 65 +3 +3 1016.7 1013.2
06 16.08 С 1 24 км 5/0 2000 м
[As trans Ci fib]
+1.5 -1.3 82 +1 +1 1017.1 1013.5 +1.5 +8.7 151
09 16.08 С 1 24 км 4/0 2000 м
[]
+1.5 -0.8 85 -0 -0 1017.4 1013.8
12 16.08 С 1 24 км 5/0 2000 м
[As trans Ci fib]
+2.2 -0.1 85 +2 +3 1017.7 1014.1 +0.6 +8.7
15 16.08 СВ 3 24 км 4/0
[]
+5.8 -1.0 62 +3 +6 1017.0 1013.5
18 16.08 В 5 24 км мгла 3/0
[As trans]
+9.8 -1.2 46 +7 +10 1016.5 1013.0 +0.6 +9.9
21 16.08 В 5 24 км 4/0
[]
+10.6 +0.2 49 +8 +10 1016.1 1012.6
00 17.08 В 6 24 км мгла 3/0
[As trans Ci fib]
+8.9 +0.3 55 +6 +6 1015.7 1012.2 +0.6 +10.8
03 17.08 В 6 24 км 5/0 2000 м
[]
+6.1 -1.5 58 +2 +2 1015.1 1011.6
06 17.08 В 1 24 км 4/1 600 м
[Sc As trans Ci fib]
+4.1 -2.5 62 +3 +3 1015.4 1011.9 +0.6 +10.8 1
09 17.08 СВ 5 24 км 8/0 2000 м
[]
+3.6 -1.2 71 -1 -1 1014.9 1011.4
12 17.08 В 5 24 км 5/1 600 м
[Sc Ac As]
+4.6 -0.7 68 0 +1 1014.6 1011.1 +3.0 +10.8
15 17.08 В 4 24 км 9/0 2000 м
[]
+7.7 +0.9 62 +5 +7 1014.2 1010.7
18 17.08 ЮВ 2 24 км 9/0 2000 м
[Ac As Cs]
+11.6 +2.7 54 +11 +14 1013.5 1010.0 +3.0 +11.6
21 17.08 В 5 24 км 8/0
[]
+12.0 +2.2 51 +10 +12 1013.0 1009.5
00 18.08 В 6 24 км мгла 9/0
[As trans Ci]
+10.6 +0.5 50 +8 +8 1012.9 1009.4 +3.0 +12.7
03 18.08 В 5 24 км 9/0
[]
+6.3 -0.3 63 +3 +3 1012.1 1008.6
06 18.08 В 5 24 км 3/0
[Ci sp]
+5.3 +0.3 70 +1 +1 1012.0 1008.5 +3.0 +12.7 1
09 18.08 СВ 4 24 км 3/0
[]
+4.4 +0.6 76 0 0 1011.8 1008.3
12 18.08 СВ 2 24 км 4/0
[Ci sp]
+5.5 +1.1 73 +4 +4 1011.5 1008.0 +2.8 +12.7
15 18.08 СВ 2 24 км 5/0
[]
+10.3 +1.9 56 +10 +13 1011.2 1007.7
18 18.08 ЮВ 1 24 км мгла 6/0
[As trans Ci fib]
+12.8 0.0 41 +13 +17 1011.1 1007.6 +2.8 +13.0
21 18.08 Ю 2 24 км 6/0
[]
+14.5 +3.1 46 +15 +18 1011.1 1007.6
00 19.08 В 5 24 км 6/0
[As trans Ci fib]
+13.1 +0.6 42 +12 +12 1011.2 1007.7 +2.8 +14.9

 

Местоположение метеостанции Spence bay (Канада): широта 69.55 долгота -93.58 высота над уровнем моря 28 м.

В архиве по умолчанию представлена погода в Spence bay за последнюю неделю. Архивные данные за месяц целиком и за предыдущие месяцы, начиная с января 2011 года, Вы можете получить, выбрав интересующий диапазон дат из раскрывающегося списка и нажав кнопку "Ввод!".

Внимание! Время в таблицах - всемирное. Для получения местного времени необходимо прибавить поправку, которая в Spence bay равна -6 ч.

Смотрите также архив погоды в соседних городах и на ближайших метеорологических станциях:

Погода в Shepherd Bay (Канада) (81 км)
Погода в Gjoa Haven Climate (Канада) (136 км)
Погода в Kugaaruk climate (Канада) (188 км)
Погода в Pelly Bay (Канада) (198 км)
Погода в Hat Island (Канада) (291 км)
Погода в Back River MAPS (Канада) (405 км)
Погода в Wager Bay (Канада) (444 км)
Погода в Cambridge Bay Gsn (Канада) (454 км)
Погода в Cambridge Bay Arpt (Канада) (454 км)
Погода в Ellice River AWS (Канада) (486 км)

Пояснения к столбцам:

Ветер - указаны скорость ветра в м/с - средняя за 10 мин, порывы в срок и между сроками (в фигурных скобках) и направление, откуда дует ветер: С - северный, СВ - северо-восточный, В - восточный, ЮВ - юго-восточный, Ю - южный, ЮЗ - юго-западный, З - западный, СЗ - северо-западный.
Видимость - горизонтальная дальность видимости в метрах или километрах. При видимости от 1 до 10 км при отсутствии осадков обычно наблюдается дымка, при ухудшении видимости до 1 км и менее - туман. В сухую погоду видимость может ухудшаться дымом, пылью или мглою.
Явления - указаны атмосферные явления, наблюдавшиеся в срок или в последний час перед сроком; фигурными скобками обозначены явления, наблюдавшиеся между сроками (за 1-3 часа до срока); квадратными скобками обозначены град или гололедные отложения с указанием их диаметра в мм.
Облачность - указаны через наклонную черту общая и нижняя облачность в баллах и высота нижней границы облаков в метрах; квадратными скобками обозначены формы облаков: Ci - перистые, Cs - перисто-слоистые, Cc - перисто-кучевые, Ac - высококучевые, As - высокослоистые, Sc - слоисто-кучевые, Ns - слоисто-дождевые, Cu - кучевые, Cb - кучево-дождевые. Подробнее классификацию облаков см. в Атласе облаков (PDF).
T - Температура воздуха - температура, измеренная на высоте 2 м над землей.
Td - Температура точки росы - температура, при понижении до которой содержащийся в воздухе водяной пар достигнет насыщения.
f - Относительная влажность воздуха - влажноcть воздуха, измеренная на высоте 2 м над землей.
Te - Эффективная температура - температура, которую ощущает одетый по сезону человек в тени. Характеристика душности погоды. При расчете учитывается влияние влажности воздуха и скорости ветра на теплоощущения человека.
Tes - Эффективная температура на солнце - температура, которую ощущает человек, с поправкой на солнечный нагрев. Характеристика знойности погоды. Зависит от высоты солнца над горизонтом, облачности и скорости ветра. Ночью, в пасмурную погоду, а также при ветре 12 м/с и более поправка равна нулю.
P - Атмосферное давление - приведенное к уровню моря атмосферное давление.
Po - Атмосферное давление - измеренное на уровне метеостанции атмосферное давление.
Tmin - Минимальная температура - минимум температуры воздуха на высоте 2 м над землей.
Tmax - Максимальная температура - максимум температуры воздуха на высоте 2 м над землей.
R - Количество осадков - Количество выпавших осадков за период времени, мм. При наведении курсора мыши на число - период времени, за который выпало указанное количество осадков.
R24 - Количество осадков - Количество выпавших осадков за 24 часа, мм.
S - Снежный покров - Высота снежного покрова, см. При наведении курсора мыши на число - состояние снежного покрова и степень покрытия местности в баллах.